User: anonymous   Login
Location: Allos
(44.2333°N, 6.6333°E)
Time: 12:47:49
(UTC+00:00)
Language:

Meteor 1-5 Rocket - Orbit

View from above orbital plane
View from above orbital plane
View from above satellite
View from above satellite

Ground track
Ground track

The orbit data is extracted from the following two-line orbital elements,

1  4420U 70047B   21062.05880439 -.00000179  00000-0 -10082-3 0  9999
2  4420  81.2270  87.8143 0087288 357.4047   2.6659 14.12091759609716
Epoch (UTC): 03 March 2021 01:24:40
Eccentricity: 0.0087288
inclination: 81.2270°
perigee height: 789 km
apogee height: 915 km
right ascension of ascending node: 87.8143°
argument of perigee: 357.4047°
revolutions per day: 14.12091759
mean anomaly at epoch: 2.6659°
orbit number at epoch: 60971

The dashed part of the orbit path shows where the satellite is in the earth's shadow,  

DLR